Theta_e
305 305 305 305 305 305 305 306 306 306 305 302 304 306 310 311 311 312 310 315 318 326 332 330 341 340 343 346 349 350 359 363 359 358 354 352 356 352 350 352 351 350 347 342 345
304 304 305 305 305 305 305 305 305 306 307 303 305 307 310 311 315 316 314 314 315 318 339 338 341 339 341 342 346 351 352 354 350 349 353 354 355 354 354 354 354 350 345 343 346
303 303 304 304 304 305 305 305 305 306 307 304 305 307 309 312 317 313 322 322 315 320 323 335 334 339 341 338 342 345 349 345 345 344 351 354 355 352 354 357 353 350 347 345 346
304 303 303 303 303 303 304 305 305 306 306 306 306 306 309 316 309 322 319 320 319 318 323 323 319 318 324 332 334 341 341 342 342 346 352 356 353 355 353 353 350 345 345 346 348
303 303 303 303 303 303 304 305 306 307 308 308 308 307 311 314 313 312 318 314 320 324 325 320 318 319 325 328 332 336 336 335 336 340 350 353 355 355 354 351 346 344 346 347 348
302 303 303 303 303 303 304 305 307 309 310 311 310 309 316 312 310 316 321 324 324 323 323 319 318 317 321 326 332 334 333 331 329 330 349 355 354 354 353 349 346 346 348 347 347
302 302 303 303 303 303 304 307 310 311 311 312 310 314 319 309 312 318 314 315 324 323 320 321 320 321 322 328 329 330 328 327 330 342 346 350 356 356 352 349 349 349 348 348 346
301 302 302 302 302 303 304 310 312 311 311 311 310 320 312 311 314 320 321 317 321 325 321 321 320 318 322 324 326 328 326 330 328 346 348 348 358 356 351 350 350 349 348 348 348
301 302 302 302 302 303 307 312 311 313 313 310 317 318 317 317 320 319 321 318 321 321 323 323 319 319 324 326 325 325 329 329 329 340 349 347 357 355 350 350 351 350 349 349 348
301 301 302 302 302 303 310 310 311 319 316 320 322 320 314 315 318 315 313 319 318 320 324 324 323 322 319 323 329 329 329 328 330 340 344 351 357 355 352 350 351 350 349 348 345
302 302 302 302 302 305 310 310 302 303 306 306 310 318 316 315 312 312 312 313 318 320 322 321 322 320 322 322 325 327 329 329 328 334 346 351 357 356 352 351 352 350 348 346 345
303 303 302 302 302 308 310 307 307 307 302 305 305 306 311 309 309 310 312 312 317 318 319 321 321 321 320 322 323 325 325 326 326 345 345 349 357 355 352 352 351 350 349 347 345
305 304 303 304 304 307 309 310 309 308 304 304 306 307 308 307 308 309 310 311 314 317 317 318 322 321 321 322 323 323 323 325 328 343 345 349 350 350 352 350 349 349 348 347 346
306 304 303 304 305 305 309 309 309 307 304 308 312 311 309 308 310 309 310 311 313 315 316 317 318 320 321 321 321 322 322 325 327 335 349 346 356 349 347 349 348 349 347 347 346
306 305 304 305 305 307 308 309 309 306 309 314 314 312 310 310 312 313 310 310 311 318 316 318 318 319 319 321 320 322 322 323 325 328 343 347 351 350 348 348 346 347 347 346 345
306 305 304 307 306 308 309 310 306 309 310 314 310 310 308 308 311 311 311 311 310 314 316 317 319 318 318 319 320 322 322 322 329 337 343 340 347 343 352 346 346 342 344 346 345
306 305 306 306 308 309 311 303 306 311 310 311 310 309 308 308 310 310 310 311 309 312 314 318 319 319 320 320 318 320 318 320 321 336 334 336 344 342 341 344 343 343 342 343 345
305 306 309 310 309 310 308 304 311 311 309 309 309 308 309 306 307 308 310 308 309 311 314 317 321 319 319 319 318 316 316 317 322 328 329 339 346 342 339 340 342 340 341 341 343
305 308 311 311 311 311 300 305 309 308 308 308 308 307 306 306 307 306 308 309 309 308 310 317 319 320 320 319 319 317 316 317 318 320 322 334 336 338 340 339 340 343 344 343 342
305 307 310 312 312 305 300 304 305 306 306 306 306 305 305 305 306 305 308 308 310 311 308 311 317 317 321 320 318 317 315 318 314 320 323 322 330 340 344 343 340 344 345 344 342
307 306 310 311 310 301 303 302 306 306 305 305 305 304 304 305 305 306 306 308 311 311 309 308 312 317 320 320 319 315 316 315 315 316 320 323 324 326 339 341 344 344 343 343 343
303 308 311 311 302 297 303 306 306 305 303 304 304 305 305 305 305 306 307 307 308 311 312 311 310 312 316 318 318 315 314 314 316 319 319 321 322 325 330 337 343 344 343 340 341
302 302 310 307 306 303 303 305 305 306 305 305 305 305 305 306 304 306 307 307 308 309 314 319 317 312 319 317 316 318 320 317 312 313 321 323 324 327 333 339 339 342 339 338 338
303 307 303 301 300 305 306 307 308 307 306 305 305 306 306 306 305 306 307 307 308 308 318 313 314 311 312 313 314 318 318 321 316 316 317 321 324 333 335 335 335 337 338 335 338
302 305 303 305 304 305 306 308 310 311 309 304 305 306 307 307 306 307 307 307 307 312 311 311 314 308 310 313 315 317 318 322 321 318 320 320 322 330 335 336 334 336 336 337 336
304 304 302 302 302 304 307 310 312 311 309 307 307 308 306 306 306 307 307 307 307 307 308 307 314 313 318 319 322 326 325 324 324 324 319 319 324 320 322 334 336 341 341 340 337
307 306 302 302 302 306 311 311 311 309 308 308 308 308 308 308 308 307 305 306 307 309 309 310 312 313 319 319 321 326 334 332 331 328 324 320 320 329 336 334 337 334 344 349 352
Wind_Speed
27 28 29 30 29 29 30 30 28 26 25 24 24 22 22 22 23 12 8 13 6 16 10 18 12 8 11 4 4 4 1 2 3 6 5 13 5 7 5 12 2 3 5 19 29
28 30 31 30 31 31 31 30 30 28 25 22 22 21 22 23 17 14 22 18 15 22 17 17 7 10 4 6 5 5 3 6 7 9 5 15 16 12 6 8 4 7 17 28 28
29 31 31 32 33 32 33 32 31 29 25 21 20 20 21 17 5 7 5 1 18 19 20 18 6 6 4 4 6 7 6 6 7 9 15 14 12 4 16 5 6 22 22 22 25
29 31 33 35 35 35 34 33 33 29 24 19 19 19 17 6 3 1 3 11 15 19 18 9 4 4 4 7 5 5 8 6 4 3 15 17 12 7 10 5 14 24 24 20 20
31 32 34 36 36 36 35 35 33 26 22 20 18 14 6 3 10 10 11 13 16 21 17 7 5 5 4 4 3 10 5 8 12 9 11 16 17 9 7 9 17 21 18 18 17
31 33 34 36 37 38 37 37 30 27 28 24 16 4 1 4 6 6 2 3 10 24 13 8 7 7 4 5 2 3 4 9 8 11 22 17 6 10 6 16 18 21 18 17 17
32 33 36 38 38 38 39 33 29 33 22 15 7 6 3 16 4 3 16 9 9 24 6 19 14 3 2 4 5 5 5 7 5 8 11 16 7 7 16 17 21 19 16 16 16
32 34 36 38 39 37 37 29 31 24 16 5 12 7 8 9 10 17 17 10 14 16 17 13 12 4 2 4 7 4 5 3 6 10 10 7 12 7 18 20 20 18 16 15 13
32 34 36 38 40 38 31 28 24 10 7 9 6 4 10 10 8 7 12 8 13 18 14 2 10 5 2 2 4 5 2 1 6 6 16 3 4 15 16 17 19 17 16 15 11
32 35 37 39 38 36 26 21 5 2 6 3 1 1 6 3 9 15 7 15 4 5 3 5 2 4 2 4 5 3 1 3 2 3 4 0 4 16 18 17 19 17 17 16 15
33 35 37 39 36 26 22 6 6 5 5 6 6 6 11 11 10 5 4 2 3 3 6 3 4 6 8 5 5 1 1 2 1 4 4 9 10 20 19 16 16 16 16 17 16
33 34 37 40 37 8 12 5 5 9 10 12 16 15 19 3 6 8 1 3 4 6 4 2 6 8 6 6 4 2 2 4 5 5 5 3 6 14 19 21 21 21 18 19 14
33 34 37 38 22 9 10 5 20 15 3 8 6 5 5 11 9 9 6 3 4 5 5 6 6 6 6 4 4 2 4 2 1 4 8 12 4 5 12 10 13 15 18 19 21
34 34 39 40 3 20 8 16 24 3 4 7 4 5 3 6 4 9 12 6 2 8 7 5 5 5 6 5 6 5 6 4 5 2 4 2 4 5 7 15 16 17 17 18 19
36 37 37 22 14 6 8 21 19 3 3 3 3 1 4 4 4 1 5 4 9 6 7 8 7 7 7 10 7 6 5 6 5 3 4 3 3 6 7 11 17 19 22 20 19
37 36 36 7 8 8 16 23 1 5 5 7 7 8 8 8 8 7 2 3 4 4 1 7 3 6 11 7 7 3 4 3 5 4 1 8 7 5 8 20 21 12 18 23 21
40 35 20 8 3 8 20 4 4 3 7 8 6 8 3 7 9 8 2 3 4 5 4 2 6 3 2 3 3 5 6 1 0 1 6 8 3 14 12 20 21 24 21 20 21
40 28 8 8 4 13 9 5 2 3 3 4 6 5 6 10 7 8 4 5 12 6 4 6 4 8 4 9 7 7 8 5 5 5 5 5 7 10 15 15 23 13 17 18 18
36 16 4 4 3 4 5 4 2 2 4 5 4 6 6 6 6 7 8 7 6 10 3 1 6 4 6 5 12 5 5 10 4 2 2 4 8 7 9 10 9 11 13 16 17
23 13 6 8 1 4 5 2 2 3 4 4 4 6 7 7 8 7 7 8 8 9 4 3 4 5 4 5 4 7 7 3 2 5 5 5 5 8 5 13 11 10 15 13 13
6 3 2 19 2 5 3 4 3 5 2 4 2 4 4 5 3 6 7 6 11 12 6 6 2 7 6 5 7 3 2 3 5 5 6 2 7 8 12 12 12 16 13 12 13
5 2 15 11 4 2 1 2 4 5 6 6 4 3 3 3 5 6 4 4 10 10 5 4 1 4 8 3 3 6 7 7 5 5 1 5 7 4 9 11 8 13 9 7 7
2 3 10 6 3 3 6 5 4 2 4 3 2 3 1 2 4 2 5 9 13 10 7 7 3 5 2 5 6 6 3 3 2 3 7 6 7 4 5 2 7 8 8 8 8
2 4 4 5 2 3 4 4 4 6 1 2 3 3 4 3 1 4 4 3 12 9 10 2 2 4 4 7 4 4 5 2 3 3 4 6 5 5 7 8 8 7 8 8 9
3 0 2 3 4 3 2 2 3 5 4 4 2 3 4 1 3 3 2 5 6 5 6 4 3 4 7 8 4 5 7 5 5 6 5 7 9 10 7 7 8 8 7 6 8
2 3 4 1 3 4 5 5 5 4 2 6 2 3 4 5 6 6 2 1 4 5 6 5 2 6 5 5 3 4 8 8 8 6 6 5 8 7 6 3 5 7 6 6 9
4 3 3 4 5 2 2 3 4 4 4 4 5 2 3 2 4 4 6 5 5 2 2 2 2 5 5 4 7 2 4 3 4 6 4 6 9 6 4 7 6 8 8 9 6
Wind_Direction
4 2 1 359 357 355 351 348 344 340 340 339 341 338 335 328 321 302 252 238 214 185 169 165 191 184 177 190 180 183 59 262 242 185 224 145 130 161 84 142 171 144 120 145 151
1 358 357 355 353 351 349 346 342 337 336 335 338 339 337 330 319 258 275 256 225 193 163 158 183 162 205 192 188 165 154 225 220 233 174 162 157 149 124 160 51 86 122 143 149
357 354 352 351 349 346 345 343 340 334 331 331 333 338 335 330 301 250 4 309 201 180 191 181 174 158 228 182 190 188 215 182 258 245 162 162 164 144 144 186 192 151 151 150 154
351 351 349 347 345 343 341 338 335 332 328 326 328 332 334 335 301 341 73 31 174 183 184 186 177 192 218 207 195 254 245 238 244 225 162 164 150 142 166 220 165 161 154 153 158
348 346 345 344 341 339 337 334 331 329 327 322 318 323 343 343 253 281 280 314 171 171 186 178 166 184 221 245 198 221 240 253 262 182 165 156 184 168 199 140 142 151 154 158 161
344 343 342 340 339 337 334 331 329 327 318 304 300 289 139 264 265 307 301 190 190 182 193 172 195 205 264 273 199 251 261 281 264 257 165 167 164 130 166 143 146 156 161 166 173
343 342 341 339 337 336 333 329 329 328 318 299 261 156 180 238 198 212 301 270 216 193 161 211 207 153 174 270 317 295 339 323 294 136 152 126 157 196 149 152 157 165 168 169 185
343 341 339 339 337 336 332 330 330 325 317 306 152 145 241 265 292 273 269 257 219 213 225 218 201 210 203 298 336 329 62 354 306 110 146 125 189 144 157 156 165 171 175 183 185
342 340 338 337 337 339 333 328 329 334 49 120 125 156 266 306 272 300 239 215 213 229 230 97 143 198 272 102 2 355 190 202 324 186 164 123 152 160 162 165 167 177 180 190 194
343 340 340 338 337 338 339 329 359 95 60 48 109 5 276 313 334 311 333 223 192 134 135 170 160 161 42 120 217 178 130 209 275 167 147 130 142 161 172 171 176 180 186 193 193
343 340 340 338 337 337 349 8 12 347 15 248 232 258 294 311 319 251 341 18 159 125 164 184 154 198 208 171 199 338 330 321 222 293 144 179 156 174 173 176 185 187 194 196 198
343 341 341 337 337 343 12 69 93 287 299 269 245 253 256 340 313 302 227 142 142 194 111 40 211 214 181 183 210 211 269 264 291 39 107 154 165 163 180 187 189 188 193 201 199
343 341 341 336 340 354 343 29 348 359 296 299 244 246 240 158 210 259 171 171 142 140 170 165 234 177 180 219 201 195 212 154 211 13 40 107 34 153 201 202 207 211 208 198 197
341 340 341 340 1 338 310 339 339 9 38 281 294 292 132 171 252 211 196 151 152 179 144 222 231 194 194 211 143 252 187 162 234 104 165 81 201 240 194 207 214 212 211 213 205
339 337 339 340 298 300 324 333 336 95 358 340 357 98 264 195 295 45 163 82 173 180 125 229 176 180 215 220 149 217 159 210 221 204 105 291 98 232 156 219 216 210 208 212 210
337 335 335 329 281 297 329 328 57 45 258 346 5 339 15 359 345 329 164 80 161 140 109 217 234 168 193 211 168 160 277 43 59 110 169 217 184 234 189 210 214 206 209 210 205
336 333 322 280 245 326 334 15 48 140 329 359 327 340 44 340 356 349 296 161 135 114 234 312 251 238 157 174 162 147 105 256 44 104 221 183 178 235 212 208 206 207 202 208 204
333 335 316 254 284 319 350 52 144 1 355 340 335 344 56 4 353 329 5 35 24 359 142 173 273 188 185 177 187 180 156 163 167 183 220 122 225 245 221 217 219 221 207 196 203
334 350 347 41 339 11 61 68 164 315 299 324 329 36 357 358 349 351 34 38 47 28 37 355 255 260 167 165 167 190 147 204 98 3 55 215 281 300 233 239 181 190 187 201 204
334 329 341 354 204 63 69 239 229 290 339 55 59 39 20 355 21 19 22 12 347 356 303 320 294 250 199 141 210 156 173 97 358 145 195 282 266 230 261 241 231 214 207 210 205
353 18 24 7 174 48 115 234 299 332 51 57 61 54 86 13 9 342 335 52 19 341 12 4 65 295 123 196 170 91 158 59 130 146 159 187 259 219 235 241 205 222 212 199 202
358 58 1 0 48 26 52 286 335 345 27 47 82 78 78 45 359 354 353 54 7 9 5 325 150 286 237 266 202 155 187 163 136 226 217 162 266 220 254 250 217 222 201 189 197
9 274 357 19 77 347 315 330 0 59 19 51 90 88 80 67 5 336 347 340 8 17 2 340 340 338 39 20 19 59 30 58 124 89 189 153 252 321 288 249 227 219 182 177 183
29 9 339 33 49 97 8 322 341 338 205 138 153 82 51 37 59 316 306 320 348 333 331 178 242 185 180 252 223 303 314 287 138 125 175 212 256 281 243 246 238 211 209 179 172
27 323 194 341 341 348 250 325 358 8 341 14 40 151 149 227 319 225 262 324 308 17 3 73 260 213 247 243 216 238 256 266 198 222 182 227 200 244 215 224 241 210 208 187 185
63 36 0 331 306 337 358 2 15 339 319 334 214 233 159 174 206 262 206 114 254 343 15 347 278 346 274 263 247 244 239 235 229 237 237 242 238 232 258 175 185 181 166 201 210
0 24 94 336 345 61 28 2 2 347 255 46 318 11 341 293 233 219 206 222 210 211 327 313 68 21 264 294 296 195 328 333 282 37 307 183 226 193 216 172 188 172 198 143 137